Time,TemperatureF,DewpointF,PressureIn,WindDirection,WindDirectionDegrees,WindSpeedMPH,WindSpeedGustMPH,Humidity,HourlyPrecipIn,Conditions,Clouds,dailyrainin,SoftwareType,DateUTC
2013-11-26 00:12:00,35.0,33.0,-100.00,North,-999,-999.0,-999.0,92,0.00,,,-99.99,,2013-11-26 06:12:00,
2013-11-26 00:22:00,35.0,33.0,-100.00,North,-999,-999.0,-999.0,92,0.00,,,-99.99,,2013-11-26 06:22:00,
2013-11-26 00:52:00,35.0,32.0,-100.00,North,-999,-999.0,-999.0,91,0.01,,,-99.99,,2013-11-26 06:52:00,
2013-11-26 01:21:00,35.0,32.0,-100.00,North,-999,-999.0,-999.0,91,-99.99,,,-99.99,,2013-11-26 07:21:00,
2013-11-26 01:52:00,35.0,32.0,-100.00,North,-999,-999.0,-999.0,91,0.00,,,-99.99,,2013-11-26 07:52:00,
2013-11-26 02:22:00,34.0,32.0,-100.00,North,-999,-999.0,-999.0,90,0.00,,,-99.99,,2013-11-26 08:22:00,
2013-11-26 02:52:00,34.0,31.0,-100.00,North,-999,-999.0,-999.0,88,0.00,,,-99.99,,2013-11-26 08:52:00,
2013-11-26 03:21:00,34.0,31.0,-100.00,North,-999,-999.0,-999.0,87,0.00,,,-99.99,,2013-11-26 09:21:00,
2013-11-26 03:53:00,34.0,30.0,-100.00,North,-999,-999.0,-999.0,88,0.00,,,-99.99,,2013-11-26 09:53:00,
2013-11-26 04:23:00,34.0,30.0,-100.00,North,-999,-999.0,-999.0,88,0.00,,,-99.99,,2013-11-26 10:23:00,
2013-11-26 04:33:00,34.0,30.0,-100.00,North,-999,-999.0,-999.0,88,0.00,,,-99.99,,2013-11-26 10:33:00,
2013-11-26 04:53:00,33.0,31.0,-100.00,North,-999,-999.0,-999.0,91,0.00,,,-99.99,,2013-11-26 10:53:00,
2013-11-26 05:23:00,33.0,31.0,-100.00,North,-999,-999.0,-999.0,91,0.00,,,-99.99,,2013-11-26 11:23:00,
2013-11-26 05:52:00,33.0,30.0,-100.00,North,-999,-999.0,-999.0,88,0.00,,,-99.99,,2013-11-26 11:52:00,
2013-11-26 06:02:00,33.0,30.0,-100.00,North,-999,-999.0,-999.0,88,0.00,,,-99.99,,2013-11-26 12:02:00,
2013-11-26 06:12:00,33.0,30.0,-100.00,North,-999,-999.0,-999.0,88,0.00,,,-99.99,,2013-11-26 12:12:00,
2013-11-26 06:22:00,33.0,30.0,-100.00,North,-999,-999.0,-999.0,88,0.00,,,-99.99,,2013-11-26 12:22:00,
2013-11-26 06:42:00,33.0,31.0,-100.00,North,-999,-999.0,-999.0,93,0.00,,,-99.99,,2013-11-26 12:42:00,
2013-11-26 06:52:00,33.0,31.0,-100.00,North,-999,-999.0,-999.0,93,0.00,,,-99.99,,2013-11-26 12:52:00,
2013-11-26 07:22:00,33.0,31.0,-100.00,North,-999,-999.0,-999.0,92,-99.99,,,-99.99,,2013-11-26 13:22:00,
2013-11-26 07:52:00,33.0,32.0,-100.00,North,-999,-999.0,-999.0,96,0.00,,,-99.99,,2013-11-26 13:52:00,
2013-11-26 08:22:00,33.0,32.0,-100.00,North,-999,-999.0,-999.0,95,0.00,,,-99.99,,2013-11-26 14:22:00,
2013-11-26 08:52:00,33.0,32.0,-100.00,North,-999,-999.0,-999.0,96,0.00,,,0.24,,2013-11-26 14:52:00,
2013-11-26 09:22:00,33.0,33.0,-100.00,North,-999,-999.0,-999.0,99,0.00,,,0.24,,2013-11-26 15:22:00,
2013-11-26 09:54:00,33.0,33.0,-100.00,North,-999,-999.0,-999.0,99,0.00,,,0.24,,2013-11-26 15:54:00,
2013-11-26 10:23:00,34.0,33.0,-100.00,North,-999,-999.0,-999.0,98,0.00,,,0.24,,2013-11-26 16:23:00,
2013-11-26 10:54:00,35.0,34.0,-100.00,North,-999,-999.0,-999.0,96,0.00,,,-99.99,,2013-11-26 16:54:00,
2013-11-26 11:13:00,36.0,33.0,-100.00,North,-999,-999.0,-999.0,92,0.00,,,0.03,,2013-11-26 17:13:00,
2013-11-26 11:22:00,36.0,33.0,-100.00,North,-999,-999.0,-999.0,92,0.00,,,0.03,,2013-11-26 17:22:00,
2013-11-26 11:53:00,36.0,33.0,-100.00,North,-999,-999.0,-999.0,91,0.00,,,0.02,,2013-11-26 17:53:00,
2013-11-26 12:21:00,38.0,33.0,-100.00,North,-999,-999.0,-999.0,81,-99.99,,,0.01,,2013-11-26 18:21:00,
2013-11-26 12:53:00,39.0,32.0,-100.00,North,-999,-999.0,-999.0,75,0.00,,,0.01,,2013-11-26 18:53:00,
2013-11-26 13:22:00,41.0,33.0,-100.00,North,-999,-999.0,-999.0,74,0.00,,,0.01,,2013-11-26 19:22:00,
2013-11-26 13:52:00,43.0,34.0,-100.00,North,-999,-999.0,-999.0,69,0.00,,,0.01,,2013-11-26 19:52:00,
2013-11-26 14:02:00,43.0,34.0,-100.00,North,-999,-999.0,-999.0,69,0.00,,,0.01,,2013-11-26 20:02:00,
2013-11-26 14:22:00,45.0,33.0,-100.00,North,-999,-999.0,-999.0,63,0.00,,,0.01,,2013-11-26 20:22:00,
2013-11-26 14:53:00,47.0,30.0,-100.00,North,-999,-999.0,-999.0,52,0.00,,,-99.99,,2013-11-26 20:53:00,
2013-11-26 15:11:00,48.0,30.0,-100.00,North,-999,-999.0,-999.0,51,0.00,,,-99.99,,2013-11-26 21:11:00,
2013-11-26 15:22:00,48.0,30.0,-100.00,North,-999,-999.0,-999.0,51,0.00,,,-99.99,,2013-11-26 21:22:00,
2013-11-26 15:43:00,48.0,29.0,-100.00,North,-999,-999.0,-999.0,47,0.00,,,-99.99,,2013-11-26 21:43:00,
2013-11-26 15:53:00,48.0,29.0,-100.00,North,-999,-999.0,-999.0,47,0.00,,,-99.99,,2013-11-26 21:53:00,
2013-11-26 16:13:00,49.0,29.0,-100.00,North,-999,-999.0,-999.0,47,0.00,,,-99.99,,2013-11-26 22:13:00,
2013-11-26 16:23:00,49.0,29.0,-100.00,North,-999,-999.0,-999.0,47,0.00,,,-99.99,,2013-11-26 22:23:00,
2013-11-26 16:43:00,49.0,28.0,-100.00,North,-999,-999.0,-999.0,45,0.00,,,-99.99,,2013-11-26 22:43:00,
2013-11-26 16:53:00,49.0,28.0,-100.00,North,-999,-999.0,-999.0,45,0.00,,,-99.99,,2013-11-26 22:53:00,
2013-11-26 17:22:00,47.0,28.0,-100.00,North,-999,-999.0,-999.0,46,-99.99,,,-99.99,,2013-11-26 23:22:00,
2013-11-26 17:33:00,47.0,28.0,-100.00,North,-999,-999.0,-999.0,46,-99.99,,,-99.99,,2013-11-26 23:33:00,
2013-11-26 17:53:00,46.0,27.0,-100.00,North,-999,-999.0,-999.0,47,-99.99,,,-99.99,,2013-11-26 23:53:00,
2013-11-26 18:21:00,44.0,27.0,-100.00,North,-999,-999.0,-999.0,51,0.00,,,-99.99,,2013-11-27 00:21:00,
2013-11-26 18:52:00,44.0,26.0,-100.00,North,-999,-999.0,-999.0,49,0.00,,,0.01,,2013-11-27 00:52:00,
2013-11-26 19:21:00,43.0,25.0,-100.00,North,-999,-999.0,-999.0,49,0.00,,,0.01,,2013-11-27 01:21:00,
2013-11-26 19:52:00,43.0,25.0,-100.00,North,-999,-999.0,-999.0,50,0.00,,,0.01,,2013-11-27 01:52:00,
2013-11-26 20:21:00,42.0,23.0,-100.00,North,-999,-999.0,-999.0,47,0.00,,,0.01,,2013-11-27 02:21:00,
2013-11-26 20:52:00,41.0,23.0,-100.00,North,-999,-999.0,-999.0,49,0.00,,,0.01,,2013-11-27 02:52:00,
2013-11-26 21:21:00,40.0,24.0,-100.00,North,-999,-999.0,-999.0,53,0.00,,,-99.99,,2013-11-27 03:21:00,
2013-11-26 21:34:00,40.0,24.0,-100.00,North,-999,-999.0,-999.0,53,0.00,,,-99.99,,2013-11-27 03:34:00,
2013-11-26 21:53:00,39.0,24.0,-100.00,North,-999,-999.0,-999.0,55,0.00,,,0.01,,2013-11-27 03:53:00,
2013-11-26 22:23:00,39.0,24.0,-100.00,North,-999,-999.0,-999.0,55,0.00,,,0.01,,2013-11-27 04:23:00,
2013-11-26 22:53:00,38.0,25.0,-100.00,North,-999,-999.0,-999.0,58,0.00,,,0.01,,2013-11-27 04:53:00,
2013-11-26 23:02:00,38.0,25.0,-100.00,North,-999,-999.0,-999.0,58,0.00,,,0.01,,2013-11-27 05:02:00,
2013-11-26 23:22:00,38.0,25.0,-100.00,North,-999,-999.0,-999.0,61,0.00,,,-99.99,,2013-11-27 05:22:00,
2013-11-26 23:42:00,38.0,26.0,-100.00,North,-999,-999.0,-999.0,61,0.00,,,0.01,,2013-11-27 05:42:00,
2013-11-26 23:53:00,38.0,26.0,-100.00,North,-999,-999.0,-999.0,61,0.00,,,0.01,,2013-11-27 05:53:00,